ISS DEB

基本信息
目录编号:
57161
目录名称:
ISS DEB
国际标识:
1998-067VL
轨道中心:
EARTH
物体状态:
已陨落(2023-11-29)
发射日期:
1998-11-20 UTC
轨道信息
数据来源: 国际轨道数据
星历时间: 2023-11-26T20:43:31+0800
半长轴: 6543.171km
偏心率: 0.0005787
轨道倾角: 51.613°
近地点辐角: 242.738°
升交点赤经: 226.146°
平近点角: 117.306°
近地点: 161.249km
远地点: 168.823km
周期: 87.789分钟
每日圈数: 16.402892
详细信息
发射场:
TTMTR
轨道高度:
LEO
数据来源:
AOE Integration Group
参考系:
TEME
时间系统:
UTC
历元类型:
SGP4
2D轨道图
3D轨道图
轨道高度分析图
轨道倾角分析图
轨道综合分析图
查看轨道综合分析图